Regional Weather Roundup
Issued by NWS Sterling, VA

Home | Current Version | Previous Version | Graphics & Text | Print | Product List | Glossary On
Versions: 1 2 3 4 5 6 7 8 9 10 11 12 13 14 15 16 17 18 19 20 21 22 23 24 25 26 27 28 29 30 31 32 33 34 35 36 37 38 39 40 41 42 43 44 45 46 47 48 49 50
705
ASUS41 KLWX 281811
RWRLWX

REGIONAL WEATHER ROUNDUP
NATIONAL WEATHER SERVICE BALTIMORE MD/WASHINGTON DC
200 PM EDT SUN MAY 28 2017

Note: "FAIR" indicates few or no clouds below 12,000 feet
with no significant weather and/or obstructions to visibility.
 TC=TEMPERATURE CELSIUS

 * =Non NWS site. Station does not report precipitation (e.g. rain,
    snow, etc.), thunder, or fog.

DCZ001-MDZ009-015-VAZ040>042-051-053>054-281900-
WASHINGTON METRO

CITY           SKY/WX    TMP DP  RH WIND       PRES   REMARKS
WASHINGTON NAT LGT RAIN  68  64  87 SE3       29.89R
DULLES         CLOUDY    68  61  78 SE3       29.88S
ANDREWS AFB    LGT RAIN  66  63  88 CALM      29.88R FOG
FT BELVOIR     LGT RAIN  69  63  81 CALM      29.87S
QUANTICO       RAIN      69  67  93 SE10      29.87F FOG
COLLEGE PARK*  CLOUDY    69  61  75 SE3       29.88R
LEESBURG*      CLOUDY    72  64  78 SE5       29.89R
MANASSAS*      CLOUDY    71  64  78 E8        29.87F
GAITHERSBURG*  LGT RAIN  68  63  84 SE3       29.89S

$$

MDZ006>007-011-014-281900-
BALTIMORE METRO

CITY           SKY/WX    TMP DP  RH WIND       PRES   REMARKS
BWI AIRPORT    LGT RAIN  69  63  81 E9        29.86F
MD SCIENCE CTR   N/A     73  60  63 MISG      29.85F
MARTIN STATE   CLOUDY    73  64  73 E7        29.89F
ANNAPOLIS      CLOUDY    73  63  70 S7        29.86F
FORT MEADE*    CLOUDY    68  61  77 E6        29.89F

$$

MDZ012-015-019>023-281900-
MARYLAND EASTERN SHORE

CITY           SKY/WX    TMP DP  RH WIND       PRES   REMARKS
OCEAN CITY     CLOUDY    64  62  93 E9        29.89F
SALISBURY      CLOUDY    71  65  81 E12       29.87F
BAY BRIDGE AP* LGT RAIN  73  64  73 SE7       29.87R
CAMBRIDGE*     CLOUDY    73  61  64 SE9       29.86F
EASTON*        PTSUNNY   77  59  53 SE12      29.90F

$$

MDZ017>025-281900-
SOUTHERN MARYLAND

CITY           SKY/WX    TMP DP  RH WIND       PRES   REMARKS
PATUXENT RIVER LGT RAIN  69  66  90 SE3       29.86F
ST INIGOES     LGT RAIN  69  66  90 E6        29.85F
LEONARDTOWN*   CLOUDY    68  63  83 E7        29.88F

$$

MDZ003>005-281900-
NORTH CENTRAL MARYLAND

CITY           SKY/WX    TMP DP  RH WIND       PRES   REMARKS
FREDERICK*     CLOUDY    75  66  73 VRB3      29.89F
HAGERSTOWN APT CLOUDY    72  61  68 SE8       29.87F
WESTMINSTER*   CLOUDY    75  61  60 SE7       29.88S

$$

MDZ501>502-281900-
WESTERN MARYLAND

CITY           SKY/WX    TMP DP  RH WIND       PRES   REMARKS
OAKLAND*       CLOUDY    61  61 100 SE5       29.90F
CUMBERLAND*    CLOUDY    64  64 100 CALM      29.90F

$$

VAZ025>031-281900-
SHENANDOAH VALLEY

CITY           SKY/WX    TMP DP  RH WIND       PRES   REMARKS
WINCHESTER*    CLOUDY    68  61  77 SE6       29.87S
FRONT ROYAL*   CLOUDY    72  63  73 SE5       29.85S
LURAY*         CLOUDY    72  63  73 CALM      29.85S
NEW MARKET*    CLOUDY    69  64  82 NE3       29.84F
STAUNTON*      CLOUDY    68  62  81 CALM      29.88F
WAYNESBORO*    CLOUDY    68  64  89 E6        29.87F

$$

WVZ021-048>050-054>055-281900-
EASTERN WEST VIRGINIA PANHANDLE

CITY           SKY/WX    TMP DP  RH WIND       PRES   REMARKS
MARTINSBURG    CLOUDY    71  61  70 SE5       29.86S
PETERSBURG*    CLOUDY    69  66  91 CALM      29.86S

$$

VAZ036>039-050-281900-
CENTRAL FOOTHILLS

CITY           SKY/WX    TMP DP  RH WIND       PRES   REMARKS
CHARLOTTESVILL LGT RAIN  69  65  86 NE5       29.86F FOG
CULPEPER*      CLOUDY    70  64  81 CALM      29.88S
ORANGE*        CLOUDY    68  63  83 CALM      29.86F
GORDONSVILLE*  CLOUDY    67  65  96 CALM      29.85F
WARRENTON*     CLOUDY    73  64  73 E7        29.86F

$$

VAZ055>057-281900-
NORTH AND CENTRAL PIEDMONT

CITY           SKY/WX    TMP DP  RH WIND       PRES   REMARKS
FREDERICKSBRG* RAIN      68  68 100 E5        29.85F
STAFFORD*      RAIN      67  67 100 E7        29.90F

$$

NCZ024-NYZ072-PAZ021-071-VAZ022-071-281900-
OTHER REGIONAL OBSERVATIONS

CITY           SKY/WX    TMP DP  RH WIND       PRES   REMARKS
NEW YORK CITY  CLOUDY    69  56  62 S8G21     29.99S
PHILADELPHIA   PTSUNNY   74  61  63 S9        29.90F
PITTSBURGH     CLOUDY    72  66  81 S12       29.78F
ROANOKE        PTSUNNY   79  67  66 SE10      29.84F
RICHMOND       CLOUDY    73  69  87 NE6       29.84F
RALEIGH        PTSUNNY   83  66  56 SW12      29.84S

$$

ANZ530>537-281900-
MARINE OBSERVATIONS

STATION/POSITION TIME  TEMP    WIND        PRES
                       AIR SEA DIR/SP/G
                 (UTC) (F)     (DEG/KT/KT) (MB)
THOMAS PT LIGHT  1800   68 66  230/  5/  5   N/A
BALT KEY BRIDGE  1748   71      80/  6/  8 1011.3F
COVE POINT       1748   70     180/ 11/ 12 1012.1F
LEWISETTA        1748   67 71  110/  9/ 10 1010.7F
SOLOMONS ISLAND  1748   69 68  110/  6/  8   N/A
PINEY POINT      1748          140/  9/ 10   N/A

$$





USA.gov is the U.S. government's official web portal to all federal, state and local government web resources and services.